www.pogodaiklimat.ru
ПОГОДА в Тогуле

Архив погоды в Тогуле (Алтайский край, Россия)

Время
(UTC), дата
21 5.07
00 6.07
03 6.07
06 6.07
09 6.07
12 6.07
15 6.07
18 6.07
21 6.07
00 7.07
03 7.07
06 7.07
09 7.07
12 7.07
15 7.07
18 7.07
21 7.07
00 8.07
03 8.07
06 8.07
09 8.07
12 8.07
15 8.07
18 8.07
21 8.07
00 9.07
03 9.07
06 9.07
09 9.07
12 9.07
15 9.07
18 9.07
21 9.07
00 10.07
03 10.07
06 10.07
09 10.07
12 10.07
15 10.07
18 10.07
21 10.07
00 11.07
03 11.07
06 11.07
09 11.07
12 11.07
15 11.07
18 11.07
21 11.07
00 12.07
03 12.07
06 12.07
09 12.07
12 12.07
15 12.07
Ветер
(напр.,м/с)
Видим. Явления Облачность Т
(С)
Тd
(С)
f
(%)
Тe
(С)
Тes
(С)
Комфортность P
(гПа)
Po
(гПа)
Тmin
(С)
Tmax
(С)
R
(мм)
R24
(мм)
S
(см)
ЮЗ 1 20 км {гроза, ливн. дождь} 8/8 300 м
[Cb cap]
+16.6 +15.1 91 +17 +17 1003.4 972.0
С 1 10 км местами туман поземный {гроза, ливн. дождь} 9/5 300 м
[Cb cap Ci sp]
+17.1 +15.8 92 +18 +18 1003.3 972.0 +16.5 5
ЮВ 1 20 км {ливн. дождь} 8/6 600 м
[Cb cap Ac trans]
+20.6 +16.0 75 +25 +28 комфорт 1004.3 973.3
Ю 3 20 км 6 баллов +25.2 +17.1 61 +29 +34 душно 1003.8 973.3
Ю 1 20 км 8/8 600 м
[Cb cap]
+26.1 +15.5 52 +29 +33 жарко 1002.4 972.0
З 2 20 км 8/6 600 м
[Cb cap Ci fib]
+27.2 +15.9 50 +30 +31 душно 1002.3 972.0 +28.2 0.0
СВ 2 20 км 9/1 600 м
[Cb cap Ci sp]
+22.3 +15.6 66 +26 +26 жарко 1002.8 972.0
штиль 0 20 км 9/3 600 м
[Cb cap Ci sp]
+20.0 +16.2 79 +22 +22 комфорт 1003.0 972.0
С 2 20 км 9/3 600 м
[Cb cap Ci sp]
+17.6 +16.1 91 +18 +18 1003.0 971.7
штиль 0 20 км местами туман поземный 6/3 600 м
[Cb cap Ci sp]
+18.5 +16.5 88 +19 +20 1003.2 972.0 +16.6
З 1 20 км 9/3 600 м
[Cb cap Ci fib]
+24.6 +18.1 67 +29 +30 душно 1002.5 972.0
ЮЗ 1 20 км 9/8 600 м
[Cb cap Ci fib]
+27.3 +16.9 53 +31 +33 душно 1002.2 972.0
З 3 20 км гроза без осадков 9/9 600 м
[Cb cap Ci fib]
+27.6 +17.4 54 +32 +33 очень душно 1000.9 970.7
С 1 20 км в посл. час гроза 9/9 600 м
[Cb cap]
+21.2 +15.1 68 +24 +24 комфорт 1002.9 972.0 +29.1
В 2 20 км гроза без осадков {ливн. дождь} 9/9 600 м
[Cb cap]
+18.0 +15.4 85 +19 +19 1003.2 972.0
В 2 20 км {гроза} 6/0
[Ac As Ci sp]
+16.8 +15.3 91 +17 +17 1003.4 972.0
С 2 20 км 4/0
[Ci fib]
+14.1 +13.1 94 +14 +14 1003.7 972.0
штиль 0 20 км местами туман поземный 6/0
[Ac As Ci fib]
+16.4 +15.8 96 +16 +17 1003.4 972.0 +14.0
Ю 2 10 км слаб. ливневой дождь 10/10 300 м
[Cb cap]
+18.6 +16.4 87 +20 +20 1004.5 973.3
ЮВ 2 20 км {ливн. дождь} 4/4 600 м
[Cb cap]
+20.6 +17.8 84 +25 +25 комфорт 1004.3 973.3
В 2 20 км гроза без осадков 9/8 600 м
[Cb cap Ci fib]
+23.9 +16.9 65 +28 +29 душно 1002.6 972.0
В 1 20 км {гроза, ливн. дождь} 4/3 600 м
[Cb cap Ci sp]
+22.4 +17.1 72 +27 +29 душно 1004.1 973.3 +25.6 1
В 1 20 км 9/8 600 м
[Cb cap Ci fib]
+19.6 +16.1 80 +23 +23 комфорт 1004.4 973.3
З 1 10 км слаб. ливневой дождь {гроза} 10/10 600 м
[Cb cap]
+18.5 +17.2 92 +20 +20 1005.9 974.7
Ю 1 20 км {ливн. дождь} 10/10 600 м
[Cb cap]
+17.7 +16.8 94 +19 +19 1005.2 973.9
Ю 2 500 м слаб. ливневой дождь {туман} туман 10/10 600 м
[Cb cap]
+17.5 +16.9 96 +18 +18 1006.1 974.7 +17.1 2
Ю 2 20 км {ливн. дождь, туман} 10/10 300 м
[Cb cap]
+19.4 +16.2 82 +22 +22 комфорт 1005.9 974.7
ЮЗ 1 4000 м слаб. ливневой дождь {туман} 10/10 300 м
[Cb cap]
+19.6 +17.2 86 +23 +23 комфорт 1007.2 976.0
С 1 10 км слаб. ливневой дождь 10/10 300 м
[Cb cap]
+20.6 +17.4 82 +25 +25 комфорт 1007.1 976.0
С 3 20 км {ливн. дождь} 9/4 300 м
[Cb cap Cc]
+19.8 +15.8 78 +22 +23 комфорт 1008.5 977.3 +20.9 3
СВ 1 20 км 9/9 300 м
[Cb cap]
+16.8 +14.1 84 +18 +18 1010.3 978.7
С 1 20 км 9/9 300 м
[Cb cap]
+15.6 +14.1 91 +16 +16 1011.8 980.0
С 2 500 м туман, небо видно 9/9 300 м
[Cb cap]
+14.1 +13.1 94 +14 +14 1012.0 980.0
З 1 20 км местами туман поземный 3/3 300 м
[Cb cap]
+14.1 +13.0 93 +14 +16 1012.0 980.0 +12.6
С 1 20 км 5/5 1000 м
[Cu hum]
+18.3 +11.4 64 +20 +25 1012.8 981.3
СЗ 3 20 км 8/8 600 м
[Cb cap]
+21.7 +11.7 53 +24 +28 комфорт 1012.5 981.3
З 2 20 км 6/4 1000 м
[Cu hum Ac As]
+23.2 +12.2 50 +26 +30 жарко 1011.0 980.0
С 4 {10} 10 км слаб. ливневой дождь 10/10 300 м
[Cb cap]
+22.1 +12.3 54 +25 +25 комфорт 1012.4 981.3 +24.3 2
З 2 20 км {ливн. дождь} 8/4 300 м
[Cb cap Ci sp]
+16.3 +13.8 85 +16 +16 1013.0 981.3
ЮВ 1 20 км {ливн. дождь} 3/1 600 м
[Cb cap Ci sp]
+14.6 +12.8 89 +15 +15 1013.2 981.3
ЮВ 2 20 км местами туман поземный ясно +12.7 +11.4 92 +12 +12 1013.5 981.3
ЮВ 2 20 км 1 балл +14.6 +12.5 87 +14 +15 1013.2 981.3 +11.5 0.0
Ю 3 20 км 3/1 600 м
[Cb cap Ci fib]
+20.5 +14.8 70 +24 +30 комфорт 1011.2 980.0
Ю 3 н/о н/о +23.3 +14.8 59 +27 +27 душно 1010.9 980.0
СЗ 2 1000 м гроза, ливневой дождь 10/10 600 м
[Cb cap]
+20.7 +16.1 75 +25 +25 комфорт 1009.8 978.7
Ю 2 {10} 20 км {гроза, ливн. дождь} 9/8 600 м
[Cb cap Ci fib]
+21.7 +15.5 68 +25 +25 комфорт 1009.7 978.7 +25.6 12
Ю 2 20 км 4/4 600 м
[Cb cap]
+19.3 +15.8 80 +22 +22 комфорт 1009.8 978.4
ЮВ 2 20 км ясно +16.7 +14.9 89 +17 +17 1010.3 978.7
ЮВ 2 20 км 4 балла +15.1 +13.6 91 +15 +15 1009.0 977.3
В 1 20 км 3/0
[Ac As Ci fib]
+16.4 +14.4 88 +17 +19 1008.9 977.3 +14.5
ЮВ 2 20 км 1 балл +21.5 +16.9 75 +25 +34 комфорт 1008.3 977.3
Ю 2 20 км 5 баллов +25.8 +14.9 51 +29 +37 душно 1007.9 977.3
ЮВ 1 {10} 20 км 5 баллов +24.9 +14.9 54 +28 +34 жарко 1006.6 976.0
С 1 20 км 2 балла +25.3 +13.5 48 +27 +30 жарко 1006.6 976.0 +26.6 0.3
В 2 20 км 2 балла +20.2 +15.6 75 +23 +23 комфорт 1007.1 976.0
Местоположение метеостанции Тогул (Алтайский край, Россия): широта 53.47 долгота 85.93 высота над уровнем моря 272 м.
В архиве по умолчанию представлена погода в Тогуле за последнюю неделю. Архивные данные за месяц целиком и за предыдущие месяцы, начиная с января 2011 года, Вы можете получить, выбрав интересующий диапазон дат из раскрывающегося списка и нажав кнопку "Найти!".
*Определитесь, кто Вы:
Внимание! Время в таблицах - всемирное. Для получения местного времени необходимо прибавить поправку, которая равна 7 ч.
Некоторые строки с данными для отдельных станций могут быть выделены курсивом. Это означает, что фактические данные отсутствуют по различным причинам, а приведенные значения являются расчетными модельными данными для данного пункта наблюдений.
Смотрите также архив погоды в соседних городах и на ближайших метеорологических станциях:
Партнеры нашего сайта:      
Пояснения к столбцам:
  • Ветер - указаны скорость ветра в м/с - средняя за 10 мин, порывы в срок и между сроками (в фигурных скобках) и направление, откуда дует ветер: С - северный,
  • СВ - северо-восточный, В - восточный, ЮВ - юго-восточный, Ю - южный, ЮЗ - юго-западный, З - западный, СЗ - северо-западный.
  • Видимость - горизонтальная дальность видимости в метрах или километрах. При видимости от 1 до 10 км при отсутствии осадков обычно наблюдается дымка, при ухудшении видимости до 1 км и менее - туман. В сухую погоду видимость может ухудшаться дымом, пылью или мглою.
  • Явления - указаны атмосферные явления, наблюдавшиеся в срок или в последний час перед сроком; фигурными скобками обозначены явления, наблюдавшиеся между сроками (за 1-3 часа до срока); квадратными скобками обозначены град или гололедные отложения с указанием их диаметра в мм.
  • Облачность - указаны через наклонную черту общая и нижняя облачность в баллах и высота нижней границы облаков в метрах; квадратными скобками обозначены формы облаков: Ci - перистые, Cs - перисто-слоистые, Cc - перисто-кучевые, Ac - высококучевые, As - высокослоистые, Sc - слоисто-кучевые, Ns - слоисто-дождевые, Cu - кучевые, Cb - кучево-дождевые. Подробнее классификацию облаков см. в Атласе облаков (PDF).
  • T - Температура воздуха - температура, измеренная на высоте 2 м над землей.
  • Td - Температура точки росы - температура, при понижении до которой содержащийся в воздухе водяной пар достигнет насыщения.
  • f - Относительная влажность воздуха - влажноcть воздуха, измеренная на высоте 2 м над землей.
  • Te - Эффективная температура - температура, которую ощущает одетый по сезону человек в тени. Характеристика душности погоды. При расчете учитывается влияние влажности воздуха и скорости ветра на теплоощущения человека.
  • Tes - Эффективная температура на солнце - температура, которую ощущает человек, с поправкой на солнечный нагрев. Характеристика знойности погоды. Зависит от высоты солнца над горизонтом, облачности и скорости ветра. Ночью, в пасмурную погоду, а также при ветре 12 м/с и более поправка равна нулю.
  • P - Атмосферное давление - приведенное к уровню моря атмосферное давление.
  • Po - Атмосферное давление - измеренное на уровне метеостанции атмосферное давление.
  • Tmin - Минимальная температура - минимум температуры воздуха на высоте 2 м над землей.
  • Tmax - Максимальная температура - максимум температуры воздуха на высоте 2 м над землей.
  • R - Количество осадков - Количество выпавших осадков за период времени, мм. При наведении курсора мыши на число - период времени, за который выпало указанное количество осадков.
  • R24 - Количество осадков - Количество выпавших осадков за 24 часа, мм.
  • S - Снежный покров - Высота снежного покрова, см. При наведении курсора мыши на число - состояние снежного покрова и степень покрытия местности в баллах.